Location: Unspecified
(0.0000°N, 0.0000°E)
Time: 03:04:19
(UTC+00:00)

A-11 Canister half - Pass Details

Date: 08 February 2023
Orbit: 1526 x 1682 km, 47.3° (Epoch: 25 March)

Event Time Altitude Azimuth Distance (km) Brightness Sun altitude
Rises 13:33:24 0° 315° (NW) 4,788 11.6 65.4°
Reaches altitude 10° 13:36:28 10° 313° (NW) 3,825 11.3 64.8°
Maximum altitude 13:46:12 71° 231° (SW) 1,724 11.9 62.8°
Drops below altitude 10° 13:56:16 10° 148° (SSE) 3,934 11.3 60.7°
Sets 13:59:29 0° 145° (SE) 4,930 11.6 60.0°
